Home > Weather > Lünen > Past weeks

Flag for Germany Weather for the Past 2 Weeks in Lünen, North Rhine-Westphalia, Germany

Now
32 °F

Ice fog.


Feels Like: 27 °F
Forecast: 28 / 33 °F
Wind: 5 mph from Northwest

Location: Dortmund / Wickede

Current Time: Feb 15, 2016 at 1:36:27 AM

Latest Report: Feb 15, 2016 at 12:50 AM


Visibility: 1 mi

Pressure: 29.50 "Hg

Humidity: 93%

Dew point: 30 °F

Location of LünenLocation

Historic Weather in Lünen — Graph

°F

Lünen Temperature Yesterday

Maximum temperature yesterday: 37 °F (at 10:50 AM)
Minimum temperature yesterday: 34 °F (at 4:50 PM)
Average temperature yesterday: 35 °F

High & Low Weather Summary for the Past Weeks

 TemperatureHumidityPressure
High52 °F (Feb 1, 5:20 AM)94% (Feb 1, 7:20 AM)30.27 "Hg (Feb 1, 7:20 AM)
Low27 °F (Feb 13, 5:50 AM)53% (Feb 3, 3:20 PM)28.82 "Hg (Feb 9, 3:50 PM)
Average41 °F77%29.64 "Hg
* Reported Jan 31 5:20 AM — Feb 14 11:50 PM, Lünen, Weather by CustomWeather, © 2016

Note: Actual official high and low records may vary slightly from our data, if they occured in-between our weather recording intervals... More about our weather records

Advertising

Lünen Weather History for the Previous 24 Hours

 ConditionsComfort  
Time TempWeatherWind HumidityBarometerVisibility
11:50 PM
Sun, Feb 14
34 °FFog.3 mph87%29.47 "Hg1 mi
10:50 PM34 °FFog.3 mph93%29.45 "Hg2 mi
10:20 PM34 °FFog.3 mph93%29.42 "Hg2 mi
9:50 PM36 °FPassing clouds.3 mph87%29.42 "Hg5 mi
9:20 PM36 °FLow clouds.5 mph87%29.39 "Hg5 mi
8:50 PM36 °FLow clouds.5 mph87%29.39 "Hg5 mi
8:20 PM36 °FLow clouds.5 mph87%29.39 "Hg5 mi
7:50 PM36 °FLow clouds.6 mph87%29.36 "Hg5 mi
7:20 PM36 °FLow clouds.6 mph87%29.33 "HgN/A
6:50 PM36 °FLow clouds.7 mph87%29.33 "Hg4 mi
6:20 PM34 °FDrizzle. Low clouds.7 mph93%29.30 "Hg4 mi
5:50 PM34 °FDrizzle. Low clouds.7 mph93%29.30 "Hg4 mi
5:20 PM34 °FLight rain. Low clouds.8 mph93%29.27 "Hg4 mi
4:50 PM34 °FLight rain. Overcast.10 mph93%29.27 "Hg4 mi
4:20 PM36 °FOvercast.7 mph93%29.24 "Hg4 mi
3:50 PM36 °FLow clouds.5 mph93%29.24 "Hg4 mi
3:20 PM36 °FLow clouds.6 mph93%29.21 "Hg4 mi
2:50 PM36 °FFog.8 mph93%29.21 "Hg3 mi
2:20 PM36 °FFog.2 mph93%29.21 "Hg1 mi
1:50 PM36 °FFog.1 mph93%29.18 "Hg1 mi
1:20 PM36 °FFog.1 mph93%29.18 "Hg1 mi
12:50 PM36 °FFog.3 mph93%29.15 "Hg1 mi
12:20 PM36 °FFog.3 mph93%29.15 "Hg1 mi
11:50 AM36 °FFog.3 mph93%29.15 "Hg1 mi
11:20 AM37 °FFog.3 mph87%29.12 "Hg1 mi
10:50 AM37 °FFog.2 mph87%29.12 "Hg1 mi
10:20 AM36 °FFog.1 mph93%29.12 "Hg1 mi
9:50 AM36 °FFog.2 mph93%29.09 "Hg1 mi
9:20 AM36 °FFog.2 mph93%29.09 "Hg1 mi
8:50 AM36 °FFog.1 mph93%29.09 "Hg1 mi
8:20 AM36 °FFog.3 mph93%29.06 "Hg1 mi
7:50 AM36 °FFog.3 mph93%29.06 "Hg1 mi
7:20 AM36 °FFog.5 mph93%29.06 "Hg1 mi
6:50 AM36 °FFog.5 mph93%29.03 "Hg1 mi
6:20 AM36 °FFog.3 mph93%29.03 "Hg1 mi
5:50 AM36 °FFog.3 mph87%29.03 "Hg2 mi
5:20 AM36 °FFog.6 mph93%29.03 "Hg2 mi
Weather by CustomWeather, © 2016

See weather overviewHow to use our weather pages